Location: Newark
(32.8369°N, 35.2736°E)
Time: 04:52:47
(UTC+00:00)

ISS - Visible Passes

Search period start: 20 November 2019 00:00
Search period end: 30 November 2019 00:00
Orbit: 412 x 421 km, 51.6° (Epoch: 20 November)

Date Brightness Start Highest point End Pass type
(mag) Time Alt. Az. Time Alt. Az. Time Alt. Az.
20 Nov -3.8 15:52:12 10° SW 15:55:31 68° SE 15:56:16 48° ENE visible
21 Nov -2.8 15:04:11 10° SSW 15:07:12 32° SE 15:10:13 10° ENE visible
21 Nov -1.2 16:41:26 10° W 16:43:09 18° NW 16:43:09 18° NW visible
22 Nov -2.4 15:52:24 10° WSW 15:55:29 33° NW 15:57:01 22° N visible
23 Nov -3.4 15:03:43 10° SW 15:07:01 64° NW 15:10:21 10° NE visible
24 Nov -1.1 15:53:50 10° WNW 15:55:39 14° NNW 15:57:23 10° N visible
25 Nov -1.7 15:04:23 10° W 15:07:02 21° NW 15:09:42 10° NNE visible
